TimeHST,TemperatureF,Dew PointF,Humidity,Sea Level PressureIn,VisibilityMPH,Wind Direction,Wind SpeedMPH,Gust SpeedMPH,PrecipitationIn,Events,Conditions,WindDirDegrees,DateUTC
12:54 AM,73.9,69.1,85,30.09,10.0,Calm,Calm,-,N/A,,Scattered Clouds,0,2013-11-01 10:54:00
1:49 AM,73.4,69.8,88,30.07,10.0,NE,9.2,-,N/A,,Mostly Cloudy,50,2013-11-01 11:49:00
1:54 AM,73.9,69.1,85,30.07,10.0,NNE,6.9,-,N/A,,Scattered Clouds,30,2013-11-01 11:54:00
2:54 AM,73.9,69.1,85,30.06,10.0,NE,6.9,18.4,N/A,,Clear,40,2013-11-01 12:54:00
3:54 AM,73.0,69.1,87,30.05,10.0,NE,9.2,16.1,N/A,,Clear,40,2013-11-01 13:54:00
4:54 AM,73.0,69.1,87,30.06,10.0,NE,9.2,18.4,N/A,,Scattered Clouds,40,2013-11-01 14:54:00
5:54 AM,73.0,68.0,84,30.07,10.0,NNE,13.8,21.9,0.00,,Clear,30,2013-11-01 15:54:00
6:54 AM,73.9,68.0,82,30.09,10.0,NNE,10.4,17.3,0.00,Rain,Light Rain,30,2013-11-01 16:54:00
7:54 AM,77.0,68.0,74,30.10,10.0,NE,9.2,16.1,0.00,,Partly Cloudy,40,2013-11-01 17:54:00
8:54 AM,75.0,71.1,87,30.12,9.0,NE,5.8,16.1,0.00,Rain,Light Rain,50,2013-11-01 18:54:00
9:54 AM,79.0,69.1,72,30.11,10.0,NE,16.1,24.2,0.00,,Clear,50,2013-11-01 19:54:00
10:54 AM,80.1,69.1,69,30.09,10.0,NE,15.0,23.0,N/A,,Scattered Clouds,50,2013-11-01 20:54:00
11:54 AM,80.1,70.0,71,30.06,10.0,North,13.8,21.9,0.00,,Mostly Cloudy,10,2013-11-01 21:54:00
12:27 PM,78.8,73.4,83,30.04,9.0,NNE,16.1,25.3,0.01,Rain,Light Rain,20,2013-11-01 22:27:00
12:36 PM,78.8,71.6,78,30.04,10.0,NNE,11.5,21.9,0.01,,Scattered Clouds,20,2013-11-01 22:36:00
12:54 PM,79.0,70.0,74,30.04,10.0,NNE,17.3,25.3,0.01,,Scattered Clouds,30,2013-11-01 22:54:00
1:54 PM,81.0,70.0,69,30.01,10.0,NE,13.8,20.7,0.00,,Partly Cloudy,50,2013-11-01 23:54:00
2:54 PM,78.1,72.0,81,30.01,8.0,NE,15.0,25.3,0.00,Rain,Light Rain,40,2013-11-02 00:54:00
3:54 PM,78.1,70.0,76,30.00,10.0,NE,15.0,26.5,0.00,,Scattered Clouds,50,2013-11-02 01:54:00
4:54 PM,77.0,70.0,79,30.02,10.0,NE,15.0,27.6,N/A,,Scattered Clouds,50,2013-11-02 02:54:00
5:54 PM,75.9,69.1,79,30.03,10.0,East,9.2,18.4,N/A,,Scattered Clouds,80,2013-11-02 03:54:00
6:54 PM,73.9,70.0,87,30.06,10.0,NE,12.7,21.9,N/A,,Partly Cloudy,50,2013-11-02 04:54:00
7:54 PM,75.0,71.1,87,30.08,10.0,NE,13.8,19.6,N/A,,Scattered Clouds,50,2013-11-02 05:54:00
8:21 PM,73.4,71.6,94,30.08,9.0,ENE,12.7,23.0,0.00,Rain,Light Rain,60,2013-11-02 06:21:00
8:36 PM,73.4,71.6,94,30.09,10.0,NE,12.7,26.5,0.01,Rain,Light Rain,50,2013-11-02 06:36:00
8:54 PM,73.9,71.1,91,30.10,10.0,NE,15.0,20.7,0.01,,Mostly Cloudy,50,2013-11-02 06:54:00
9:54 PM,73.9,71.1,91,30.10,10.0,NE,17.3,24.2,0.00,,Partly Cloudy,50,2013-11-02 07:54:00
10:54 PM,73.9,70.0,87,30.10,10.0,NE,15.0,26.5,N/A,,Clear,40,2013-11-02 08:54:00
11:54 PM,73.9,69.1,85,30.09,10.0,NE,8.1,18.4,N/A,,Clear,40,2013-11-02 09:54:00